Location: Newark
(39.0083°N, 20.7336°E)
Time: 08:09:37
(UTC+00:00)

Nauka - Pass Details

Date: 06 October 2021
Orbit: 417 x 423 km, 51.6° (Epoch: 22 October)

Event Time Altitude Azimuth Distance (km) Brightness Sun altitude
Rises 17:37:03 0° 300° (WNW) 2,362 ? -17.4°
Reaches altitude 10° 17:39:16 10° 291° (WNW) 1,496 ? -17.8°
Maximum altitude 17:42:19 32° 226° (SW) 732 ? -18.4°
Enters shadow 17:43:56 21° 177° (S) 1,004 ? -18.7°
